Orbital Elements at Epoch 2459200.5 (2020-Dec-17.0) TDB
Reference: JPL 22 (heliocentric ecliptic J2000)
Element | Value | Uncertainty (1-sigma) | Units |
e | .1718613043751899 | 6.8403e-08 | |
a | 2.334740966476816 | 8.8411e-09 | au |
q | 1.933489338599918 | 1.6495e-07 | au |
i | 4.81721672090887 | 3.0998e-06 | deg |
node | 227.9724544936108 | 5.9268e-05 | deg |
peri | 130.3831335975587 | 6.0335e-05 | deg |
M | 10.3082945067006 | 1.0363e-05 | deg |
tp | 2459163.188664047088 (2020-Nov-09.68866405) | 3.7444e-05 | TDB |
period | 1303.03620393433 3.57 | 7.4014e-06 2.026e-08 | d yr |
n | .2762778186155012 | 1.5693e-09 | deg/d |
Q | 2.735992594353713 | 1.0361e-08 | au |
|
| | Orbit Determination Parameters
Additional Information
|